TimeCDT,TemperatureF,Dew PointF,Humidity,Sea Level PressureIn,VisibilityMPH,Wind Direction,Wind SpeedMPH,Gust SpeedMPH,PrecipitationIn,Events,Conditions,WindDirDegrees,DateUTC
12:06 AM,66.2,60.8,83,30.05,10.0,ENE,13.8,-,N/A,,Overcast,60,2013-09-08 05:06:00
12:54 AM,66.0,59.0,78,30.05,10.0,ENE,16.1,-,N/A,,Overcast,70,2013-09-08 05:54:00
1:33 AM,64.4,57.2,77,30.08,10.0,ENE,10.4,-,N/A,,Mostly Cloudy,70,2013-09-08 06:33:00
1:54 AM,64.0,57.0,78,30.07,10.0,ENE,12.7,-,N/A,,Overcast,70,2013-09-08 06:54:00
2:54 AM,63.0,54.0,72,30.08,10.0,East,11.5,23.0,N/A,,Overcast,90,2013-09-08 07:54:00
3:54 AM,60.1,54.0,80,30.08,10.0,East,6.9,-,N/A,,Partly Cloudy,90,2013-09-08 08:54:00
4:54 AM,57.9,52.0,81,30.09,10.0,East,8.1,-,N/A,,Clear,90,2013-09-08 09:54:00
5:54 AM,57.0,52.0,83,30.09,10.0,East,6.9,-,N/A,,Clear,80,2013-09-08 10:54:00
6:54 AM,55.9,51.1,84,30.09,10.0,ENE,8.1,-,N/A,,Clear,70,2013-09-08 11:54:00
7:54 AM,59.0,51.1,75,30.09,10.0,East,10.4,18.4,N/A,,Clear,80,2013-09-08 12:54:00
8:54 AM,62.1,52.0,70,30.11,10.0,ESE,11.5,19.6,N/A,,Clear,110,2013-09-08 13:54:00
9:54 AM,66.9,50.0,54,30.11,10.0,ESE,13.8,21.9,N/A,,Clear,110,2013-09-08 14:54:00
10:25 AM,69.8,48.2,46,30.12,10.0,ESE,16.1,23.0,N/A,,Partly Cloudy,110,2013-09-08 15:25:00
10:54 AM,68.0,48.9,50,30.11,10.0,East,15.0,-,N/A,,Clear,100,2013-09-08 15:54:00
11:54 AM,71.1,51.1,49,30.10,10.0,ESE,9.2,-,N/A,,Clear,120,2013-09-08 16:54:00
12:17 PM,73.4,51.8,47,30.10,10.0,ESE,11.5,19.6,N/A,,Partly Cloudy,110,2013-09-08 17:17:00
12:54 PM,73.9,53.1,48,30.09,10.0,East,12.7,-,N/A,,Clear,100,2013-09-08 17:54:00
1:54 PM,73.9,53.1,48,30.06,10.0,East,11.5,-,N/A,,Clear,100,2013-09-08 18:54:00
2:54 PM,73.0,54.0,51,30.04,10.0,ESE,11.5,-,N/A,,Clear,120,2013-09-08 19:54:00
3:54 PM,72.0,55.9,57,30.02,10.0,ESE,11.5,-,0.00,Rain,Light Rain,120,2013-09-08 20:54:00
4:54 PM,71.1,55.9,59,29.99,10.0,East,11.5,-,0.00,,Scattered Clouds,100,2013-09-08 21:54:00
5:54 PM,71.1,57.0,61,29.99,10.0,ESE,6.9,-,N/A,,Overcast,110,2013-09-08 22:54:00
6:54 PM,70.0,57.9,65,29.99,10.0,SE,9.2,-,N/A,,Overcast,140,2013-09-08 23:54:00
7:54 PM,68.0,59.0,73,30.00,10.0,SE,6.9,-,0.00,Rain,Light Rain,130,2013-09-09 00:54:00
8:54 PM,66.9,59.0,76,30.00,10.0,SE,8.1,-,0.00,,Overcast,140,2013-09-09 01:54:00
9:54 PM,66.0,60.1,81,29.99,10.0,SSE,6.9,-,0.00,,Overcast,160,2013-09-09 02:54:00
10:54 PM,66.0,61.0,84,29.98,10.0,SE,6.9,-,N/A,,Overcast,140,2013-09-09 03:54:00
11:54 PM,64.9,61.0,87,29.96,10.0,SE,8.1,-,0.00,,Overcast,140,2013-09-09 04:54:00